Content
SEND FEEDBACK

Daily
Averages
Monthly
Summary
United States of America

ASATDAS, GUAM


Home > North America > United States > Guam
Elevation: 186 meters     Latitude: 13 35N     Longitude: 144 56E

WEATHER
 
SELECT A DAY
Number of Records: 213,834;   Date Range: 1/1/95 - 10/22/14
 
SHARE

PRINT THIS DATA

[ ← Previous Day ]
WEATHER ALMANAC - 30 JULY, 2014
[ Next Day → ]
[ °F ]   °C
Weather ElementAverageHighLow
Temperature24.9 °C26.1 °C (7:54 pm)23.9 °C (11:54 am)
Dewpoint24.3 °C26 °C (12:47 pm)23 °C (2:01 pm)
Humidity96.1 %100 % (6:39 am)87 % (8:54 am)
Barometer1006.1 hPa1010.5 hPa (1:54 am)1003.4 hPa (4:54 pm)
Wind Speed39.3 km/h61.2 km/h (10:37 am)
Wind Gust85.1 km/h (10:37 am)
Weather ElementAverage
Visibility6 km
Wind DirectionWSW (253.3 °)

Weather ElementTotal
Precipitation1106.93 mm
Cooling Degree Days6.7 (Base 18.3)
Growing Degree Days15 (Base 10)
Averaged from 206 records on 30 July, 2014
WEATHER CONDITIONS BREAKOUT
WIND DIRECTION BREAKOUT
WEATHER BY HOUR - 30 JULY, 2014
[ °F ]   °C
Local TimeTemperatureDewpointHumidityBarometerVisibilityWind DirectionWind SpeedGust SpeedPrecipitationEventsConditions
12:17 AM24 °C24 °C100 %1008.8 hPa1.6 kmWNW (290°)50.1 km/h61.2 km/h11.18 mmRainHeavy Rain
12:17 AM24 °C24 °C100 %1008.8 hPa1.6 kmWNW (290°)50.1 km/h61.2 km/h11.18 mmRainHeavy Rain
12:25 AM24 °C24 °C100 %1008.8 hPa3.2 kmWest (280°)48.1 km/h61.2 km/h12.7 mmRainHeavy Rain
12:25 AM24 °C24 °C100 %1008.8 hPa3.2 kmWest (280°)48.1 km/h61.2 km/h12.7 mmRainHeavy Rain
12:42 AM24 °C24 °C100 %1008.1 hPa4.8 kmWest (270°)46.3 km/h59.2 km/h14.22 mmRainRain
12:42 AM24 °C24 °C100 %1008.1 hPa4.8 kmWest (270°)46.3 km/h59.2 km/h14.22 mmRainRain
12:49 AM24 °C24 °C100 %1008.5 hPa2.4 kmWest (280°)44.4 km/h59.2 km/h14.99 mmRainHeavy Rain
12:49 AM24 °C24 °C100 %1008.5 hPa2.4 kmWest (280°)44.4 km/h59.2 km/h14.99 mmRainHeavy Rain
12:54 AM25 °C24.4 °C96 %1008.1 hPa2.4 kmWest (280°)44.4 km/h62.9 km/h16.76 mmRainHeavy Rain
12:54 AM25 °C24.4 °C96 %1008.1 hPa2.4 kmWest (280°)44.4 km/h62.9 km/h16.76 mmRainHeavy Rain
1:32 AM24 °C24 °C100 %1010.5 hPa1.3 kmNorth (10°)18.5 km/h44.4 km/h30.99 mmRainHeavy Rain
1:32 AM24 °C24 °C100 %1010.5 hPa1.3 kmNorth (10°)18.5 km/h44.4 km/h30.99 mmRainHeavy Rain
1:50 AM24 °C24 °C100 %1009.1 hPa4 kmWNW (300°)31.5 km/h42.6 km/hRainHeavy Rain
1:50 AM24 °C24 °C100 %1009.1 hPa4 kmWNW (300°)31.5 km/h42.6 km/hRainHeavy Rain
1:54 AM24.4 °C24.4 °C100 %1008.1 hPa4 kmNW (310°)24.1 km/h42.6 km/hRainRain
1:54 AM24.4 °C24.4 °C100 %1008.1 hPa4 kmNW (310°)24.1 km/h42.6 km/hRainRain
1:56 AM24 °C24 °C100 %1008.8 hPa4.8 kmNW (310°)24.1 km/h42.6 km/hRainRain
1:56 AM24 °C24 °C100 %1008.8 hPa4.8 kmNW (310°)24.1 km/h42.6 km/hRainRain
2:18 AM25 °C24 °C94 %1008.5 hPa14.5 kmNW (310°)29.6 km/h40.7 km/hRainLight Rain
2:18 AM25 °C24 °C94 %1008.5 hPa14.5 kmNW (310°)29.6 km/h40.7 km/hRainLight Rain
2:37 AM26 °C24 °C89 %1007.8 hPa16.1 kmWNW (300°)24.1 km/h35.2 km/h2.54 mmMostly Cloudy
2:37 AM26 °C24 °C89 %1007.8 hPa16.1 kmWNW (300°)24.1 km/h35.2 km/h2.54 mmMostly Cloudy
2:54 AM25.6 °C24.4 °C93 %1007.5 hPa16.1 kmWNW (300°)29.6 km/h48.1 km/h2.54 mmOvercast
2:54 AM25.6 °C24.4 °C93 %1007.5 hPa16.1 kmWNW (300°)29.6 km/h48.1 km/h2.54 mmOvercast
3:20 AM26 °C24 °C89 %1007.8 hPa16.1 kmWNW (300°)37 km/h50.1 km/hMostly Cloudy
3:20 AM26 °C24 °C89 %1007.8 hPa16.1 kmWNW (300°)37 km/h50.1 km/hMostly Cloudy
3:30 AM26 °C24 °C89 %1007.8 hPa16.1 kmWNW (300°)40.7 km/h53.8 km/hMostly Cloudy
3:30 AM26 °C24 °C89 %1007.8 hPa16.1 kmWNW (300°)40.7 km/h53.8 km/hMostly Cloudy
3:54 AM26.1 °C23.9 °C88 %1006.8 hPa16.1 kmWNW (290°)40.7 km/h57.5 km/hOvercast
3:54 AM26.1 °C23.9 °C88 %1006.8 hPa16.1 kmWNW (290°)40.7 km/h57.5 km/hOvercast
4:06 AM26 °C24 °C89 %1007.5 hPa16.1 kmWNW (290°)37 km/h53.8 km/hOvercast
4:06 AM26 °C24 °C89 %1007.5 hPa16.1 kmWNW (290°)37 km/h53.8 km/hOvercast
4:54 AM25.6 °C23.3 °C87 %1006.4 hPa16.1 kmWNW (290°)46.3 km/h66.6 km/hOvercast
4:54 AM25.6 °C23.3 °C87 %1006.4 hPa16.1 kmWNW (290°)46.3 km/h66.6 km/hOvercast
5:03 AM26 °C24 °C89 %1006.8 hPa16.1 kmWNW (290°)44.4 km/h64.9 km/hOvercast
5:03 AM26 °C24 °C89 %1006.8 hPa16.1 kmWNW (290°)44.4 km/h64.9 km/hOvercast
5:21 AM26 °C24 °C89 %1006.8 hPa16.1 kmWNW (300°)42.6 km/h62.9 km/hOvercast
5:21 AM26 °C24 °C89 %1006.8 hPa16.1 kmWNW (300°)42.6 km/h62.9 km/hOvercast
5:54 AM25.6 °C25 °C96 %1006.1 hPa8 kmNW (310°)40.7 km/h59.2 km/h1.02 mmRainLight Rain
5:54 AM25.6 °C25 °C96 %1006.1 hPa8 kmNW (310°)40.7 km/h59.2 km/h1.02 mmRainLight Rain
6:04 AM26 °C26 °C100 %1006.4 hPa4.8 kmWNW (300°)37 km/h57.5 km/h1.52 mmRainRain
6:04 AM26 °C26 °C100 %1006.4 hPa4.8 kmWNW (300°)37 km/h57.5 km/h1.52 mmRainRain
6:10 AM26 °C26 °C100 %1006.4 hPa4 kmWNW (290°)42.6 km/h57.5 km/h2.54 mmRainHeavy Rain
6:10 AM26 °C26 °C100 %1006.4 hPa4 kmWNW (290°)42.6 km/h57.5 km/h2.54 mmRainHeavy Rain
6:22 AM26 °C25 °C94 %1006.4 hPa4.8 kmWNW (290°)44.4 km/h61.2 km/h4.32 mmRainRain
6:22 AM26 °C25 °C94 %1006.4 hPa4.8 kmWNW (290°)44.4 km/h61.2 km/h4.32 mmRainRain
6:29 AM26 °C25 °C94 %1006.4 hPa3.2 kmWest (280°)46.3 km/h64.9 km/h5.59 mmRainHeavy Rain
6:29 AM26 °C25 °C94 %1006.4 hPa3.2 kmWest (280°)46.3 km/h64.9 km/h5.59 mmRainHeavy Rain
6:31 AM26 °C25 °C94 %1006.4 hPa2.9 kmWest (280°)46.3 km/h64.9 km/h6.1 mmRainHeavy Rain
6:31 AM26 °C25 °C94 %1006.4 hPa2.9 kmWest (280°)46.3 km/h64.9 km/h6.1 mmRainHeavy Rain
6:40 AM26 °C26 °C100 %1006.4 hPa4.8 kmWNW (290°)44.4 km/h59.2 km/h6.86 mmRainRain
6:40 AM26 °C26 °C100 %1006.4 hPa4.8 kmWNW (290°)44.4 km/h59.2 km/h6.86 mmRainRain
6:42 AM26 °C26 °C100 %1006.4 hPa2.4 kmWNW (290°)44.4 km/h62.9 km/h6.86 mmRainRain
6:42 AM26 °C26 °C100 %1006.4 hPa2.4 kmWNW (290°)44.4 km/h62.9 km/h6.86 mmRainRain
6:54 AM25.6 °C25 °C96 %1005.8 hPa1.6 kmWNW (290°)55.5 km/h68.6 km/h9.65 mmRainRain
6:54 AM25.6 °C25 °C96 %1005.8 hPa1.6 kmWNW (290°)55.5 km/h68.6 km/h9.65 mmRainRain
7:02 AM25 °C24 °C94 %1006.1 hPa6.4 kmWest (280°)42.6 km/h68.6 km/h0.76 mmRainLight Rain
7:02 AM25 °C24 °C94 %1006.1 hPa6.4 kmWest (280°)42.6 km/h68.6 km/h0.76 mmRainLight Rain
7:26 AM26 °C25 °C94 %1006.4 hPa3.2 kmWest (280°)40.7 km/h70.3 km/h2.54 mmRainHeavy Rain
7:26 AM26 °C25 °C94 %1006.4 hPa3.2 kmWest (280°)40.7 km/h70.3 km/h2.54 mmRainHeavy Rain
7:37 AM26 °C25 °C94 %1006.8 hPa0.8 kmNW (310°)51.8 km/h72.3 km/h9.65 mmFog-RainHeavy Rain
7:37 AM26 °C25 °C94 %1006.8 hPa0.8 kmNW (310°)51.8 km/h72.3 km/h9.65 mmFog-RainHeavy Rain
7:46 AM26 °C26 °C100 %1006.8 hPa0.8 kmNW (310°)48.1 km/h72.3 km/h15.24 mmFog-RainHeavy Rain
7:46 AM26 °C26 °C100 %1006.8 hPa0.8 kmNW (310°)48.1 km/h72.3 km/h15.24 mmFog-RainHeavy Rain
7:54 AM25 °C25 °C100 %1006.1 hPa1.3 kmWNW (290°)53.8 km/h77.7 km/h17.27 mmRainHeavy Rain
7:54 AM25 °C25 °C100 %1006.1 hPa1.3 kmWNW (290°)53.8 km/h77.7 km/h17.27 mmRainHeavy Rain
8:03 AM25 °C24 °C94 %1006.4 hPa1.6 kmWest (280°)42.6 km/h64.9 km/h2.54 mmRainHeavy Rain
8:03 AM25 °C24 °C94 %1006.4 hPa1.6 kmWest (280°)42.6 km/h64.9 km/h2.54 mmRainHeavy Rain
8:12 AM26 °C26 °C100 %1006.1 hPa4.8 kmWest (280°)48.1 km/h66.6 km/h3.3 mmRainLight Rain
8:12 AM26 °C26 °C100 %1006.1 hPa4.8 kmWest (280°)48.1 km/h66.6 km/h3.3 mmRainLight Rain
8:28 AM25 °C24 °C94 %1006.4 hPa4 kmWest (280°)51.8 km/h74 km/h3.3 mmRainHeavy Rain
8:28 AM25 °C24 °C94 %1006.4 hPa4 kmWest (280°)51.8 km/h74 km/h3.3 mmRainHeavy Rain
8:32 AM25 °C24 °C94 %1006.1 hPa2.9 kmWest (280°)51.8 km/h74 km/h3.3 mmRainHeavy Rain
8:32 AM25 °C24 °C94 %1006.1 hPa2.9 kmWest (280°)51.8 km/h74 km/h3.3 mmRainHeavy Rain
8:39 AM26 °C25 °C94 %1006.4 hPa4.8 kmWNW (290°)46.3 km/h68.6 km/h4.32 mmRainRain
8:39 AM26 °C25 °C94 %1006.4 hPa4.8 kmWNW (290°)46.3 km/h68.6 km/h4.32 mmRainRain
8:43 AM26 °C25 °C94 %1006.4 hPa2.9 kmWNW (290°)51.8 km/h68.6 km/h4.57 mmRainHeavy Rain
8:43 AM26 °C25 °C94 %1006.4 hPa2.9 kmWNW (290°)51.8 km/h68.6 km/h4.57 mmRainHeavy Rain
8:54 AM25.6 °C24.4 °C93 %1005.4 hPa2.9 kmWest (280°)48.1 km/h74 km/h5.59 mmRainLight Rain
8:54 AM25.6 °C24.4 °C93 %1005.4 hPa2.9 kmWest (280°)48.1 km/h74 km/h5.59 mmRainLight Rain
8:56 AM26 °C25 °C94 %1006.1 hPa4.8 kmWest (280°)50.1 km/h74 km/h0 mmRainLight Rain
8:56 AM26 °C25 °C94 %1006.1 hPa4.8 kmWest (280°)50.1 km/h74 km/h0 mmRainLight Rain
9:05 AM26 °C26 °C100 %1006.4 hPa9.7 kmWest (280°)50.1 km/h64.9 km/h0 mmOvercast
9:05 AM26 °C26 °C100 %1006.4 hPa9.7 kmWest (280°)50.1 km/h64.9 km/h0 mmOvercast
9:14 AM25 °C24 °C94 %1006.8 hPa2.9 kmWNW (290°)50.1 km/h74 km/h0 mmRainRain
9:14 AM25 °C24 °C94 %1006.8 hPa2.9 kmWNW (290°)50.1 km/h74 km/h0 mmRainRain
9:19 AM25 °C24 °C94 %1007.1 hPa3.2 kmWNW (290°)50.1 km/h70.3 km/h0.76 mmRainHeavy Rain
9:19 AM25 °C24 °C94 %1007.1 hPa3.2 kmWNW (290°)50.1 km/h70.3 km/h0.76 mmRainHeavy Rain
9:22 AM25 °C24 °C94 %1006.8 hPa2.9 kmWNW (290°)46.3 km/h66.6 km/h0.76 mmRainRain
9:22 AM25 °C24 °C94 %1006.8 hPa2.9 kmWNW (290°)46.3 km/h66.6 km/h0.76 mmRainRain
9:27 AM25 °C24 °C94 %1006.4 hPa1.6 kmWest (280°)48.1 km/h66.6 km/h1.52 mmRainHeavy Rain
9:27 AM25 °C24 °C94 %1006.4 hPa1.6 kmWest (280°)48.1 km/h66.6 km/h1.52 mmRainHeavy Rain
9:37 AM24 °C24 °C100 %1006.4 hPa4.8 kmWest (270°)50.1 km/h70.3 km/h3.05 mmRainLight Rain
9:37 AM24 °C24 °C100 %1006.4 hPa4.8 kmWest (270°)50.1 km/h70.3 km/h3.05 mmRainLight Rain
9:40 AM24 °C24 °C100 %1006.4 hPa4.8 kmWest (270°)48.1 km/h64.9 km/h3.05 mmRainRain
9:40 AM24 °C24 °C100 %1006.4 hPa4.8 kmWest (270°)48.1 km/h64.9 km/h3.05 mmRainRain
9:44 AM24 °C24 °C100 %1006.4 hPa2.4 kmWest (270°)46.3 km/h64.9 km/h3.05 mmRainHeavy Rain
9:44 AM24 °C24 °C100 %1006.4 hPa2.4 kmWest (270°)46.3 km/h64.9 km/h3.05 mmRainHeavy Rain
9:52 AM24 °C24 °C100 %1006.1 hPa0.3 kmWest (270°)51.8 km/h68.6 km/h5.59 mmFog-RainHeavy Rain
9:52 AM24 °C24 °C100 %1006.1 hPa0.3 kmWest (270°)51.8 km/h68.6 km/h5.59 mmFog-RainHeavy Rain
9:54 AM24.4 °C24.4 °C100 %1005.4 hPa0.3 kmWest (260°)53.8 km/h68.6 km/h7.37 mmFog-RainHeavy Rain
9:54 AM24.4 °C24.4 °C100 %1005.4 hPa0.3 kmWest (260°)53.8 km/h68.6 km/h7.37 mmFog-RainHeavy Rain
10:20 AM25 °C25 °C100 %1005.4 hPa0.8 kmWest (260°)55.5 km/h77.7 km/h14.99 mmFog-RainHeavy Rain
10:20 AM25 °C25 °C100 %1005.4 hPa0.8 kmWest (260°)55.5 km/h77.7 km/h14.99 mmFog-RainHeavy Rain
10:37 AM24 °C24 °C100 %1005.4 hPa0.3 kmWest (270°)61.2 km/h85.1 km/h22.61 mmFog-RainHeavy Rain
10:37 AM24 °C24 °C100 %1005.4 hPa0.3 kmWest (270°)61.2 km/h85.1 km/h22.61 mmFog-RainHeavy Rain
10:51 AM25 °C24 °C94 %1005.4 hPa1.9 kmWest (270°)48.1 km/h81.4 km/h25.4 mmRainRain
10:51 AM25 °C24 °C94 %1005.4 hPa1.9 kmWest (270°)48.1 km/h81.4 km/h25.4 mmRainRain
10:52 AM25 °C24.4 °C96 %1004.7 hPa1.9 kmWest (270°)46.3 km/h81.4 km/h25.4 mmRainHeavy Rain
10:52 AM25 °C24.4 °C96 %1004.7 hPa1.9 kmWest (270°)46.3 km/h81.4 km/h25.4 mmRainHeavy Rain
10:58 AM24 °C24 °C100 %1005.4 hPa1.3 kmWest (270°)48.1 km/h76 km/h1.27 mmRainHeavy Rain
10:58 AM24 °C24 °C100 %1005.4 hPa1.3 kmWest (270°)48.1 km/h76 km/h1.27 mmRainHeavy Rain
11:24 AM25 °C24 °C94 %1005.1 hPa4 kmWest (270°)48.1 km/h79.7 km/h7.87 mmRainLight Rain
11:24 AM25 °C24 °C94 %1005.1 hPa4 kmWest (270°)48.1 km/h79.7 km/h7.87 mmRainLight Rain
11:31 AM25 °C25 °C100 %1005.4 hPa4.8 kmWest (270°)50.1 km/h70.3 km/h7.87 mmRainRain
11:31 AM25 °C25 °C100 %1005.4 hPa4.8 kmWest (270°)50.1 km/h70.3 km/h7.87 mmRainRain
11:35 AM26 °C25 °C94 %1005.1 hPa4 kmWest (270°)48.1 km/h68.6 km/h7.87 mmRainLight Rain
11:35 AM26 °C25 °C94 %1005.1 hPa4 kmWest (270°)48.1 km/h68.6 km/h7.87 mmRainLight Rain
11:39 AM25 °C24 °C94 %1005.4 hPa2.9 kmWest (270°)53.8 km/h70.3 km/h8.13 mmRainHeavy Rain
11:39 AM25 °C24 °C94 %1005.4 hPa2.9 kmWest (270°)53.8 km/h70.3 km/h8.13 mmRainHeavy Rain
11:54 AM24.4 °C24.4 °C100 %1004.7 hPa2.4 kmWSW (250°)48.1 km/h72.3 km/h9.91 mmRainRain
11:54 AM24.4 °C24.4 °C100 %1004.7 hPa2.4 kmWSW (250°)48.1 km/h72.3 km/h9.91 mmRainRain
11:56 AM25 °C24 °C94 %1005.1 hPa3.2 kmWSW (250°)51.8 km/h72.3 km/h0 mmRainLight Rain
11:56 AM25 °C24 °C94 %1005.1 hPa3.2 kmWSW (250°)51.8 km/h72.3 km/h0 mmRainLight Rain
12:06 PM24 °C24 °C100 %1004.7 hPa2.9 kmWSW (240°)46.3 km/h64.9 km/h1.02 mmRainRain
12:06 PM24 °C24 °C100 %1004.7 hPa2.9 kmWSW (240°)46.3 km/h64.9 km/h1.02 mmRainRain
12:10 PM24 °C24 °C100 %1004.7 hPa4 kmWSW (240°)46.3 km/h64.9 km/h1.02 mmRainRain
12:10 PM24 °C24 °C100 %1004.7 hPa4 kmWSW (240°)46.3 km/h64.9 km/h1.02 mmRainRain
12:17 PM24 °C24 °C100 %1004.7 hPa6.4 kmWSW (240°)37 km/h66.6 km/h1.02 mmRainLight Rain
12:17 PM24 °C24 °C100 %1004.7 hPa6.4 kmWSW (240°)37 km/h66.6 km/h1.02 mmRainLight Rain
12:40 PM24 °C24 °C100 %1005.1 hPa1.6 kmWSW (240°)46.3 km/h68.6 km/h2.54 mmRainHeavy Rain
12:40 PM24 °C24 °C100 %1005.1 hPa1.6 kmWSW (240°)46.3 km/h68.6 km/h2.54 mmRainHeavy Rain
12:47 PM24 °C24 °C100 %1004.7 hPa1.6 kmWSW (240°)31.5 km/h68.6 km/h4.57 mmRainHeavy Rain
12:47 PM24 °C24 °C100 %1004.7 hPa1.6 kmWSW (240°)31.5 km/h68.6 km/h4.57 mmRainHeavy Rain
12:54 PM24.4 °C23.9 °C97 %1004.4 hPa1.9 kmWSW (240°)55.5 km/h72.3 km/h5.33 mmRainHeavy Rain
12:54 PM24.4 °C23.9 °C97 %1004.4 hPa1.9 kmWSW (240°)55.5 km/h72.3 km/h5.33 mmRainHeavy Rain
12:59 PM24 °C24 °C100 %1004.7 hPa0.8 kmSW (230°)40.7 km/h72.3 km/h0.76 mmFog-RainHeavy Rain
12:59 PM24 °C24 °C100 %1004.7 hPa0.8 kmSW (230°)40.7 km/h72.3 km/h0.76 mmFog-RainHeavy Rain
1:15 PM24 °C24 °C100 %1004.7 hPa2.4 kmWSW (240°)40.7 km/h57.5 km/h6.86 mmRainRain
1:15 PM24 °C24 °C100 %1004.7 hPa2.4 kmWSW (240°)40.7 km/h57.5 km/h6.86 mmRainRain
1:20 PM25 °C24 °C94 %1004.7 hPa4.8 kmWSW (240°)33.3 km/h55.5 km/h7.11 mmRainRain
1:20 PM25 °C24 °C94 %1004.7 hPa4.8 kmWSW (240°)33.3 km/h55.5 km/h7.11 mmRainRain
1:34 PM24 °C24 °C100 %1005.1 hPa2.9 kmSSW (210°)29.6 km/h53.8 km/h7.37 mmRainHeavy Rain
1:34 PM24 °C24 °C100 %1005.1 hPa2.9 kmSSW (210°)29.6 km/h53.8 km/h7.37 mmRainHeavy Rain
1:45 PM24 °C24 °C100 %1004.7 hPa0.8 kmSSW (200°)22.2 km/h38.9 km/h14.22 mmFog-RainHeavy Rain
1:45 PM24 °C24 °C100 %1004.7 hPa0.8 kmSSW (200°)22.2 km/h38.9 km/h14.22 mmFog-RainHeavy Rain
1:51 PM24 °C24 °C100 %1005.1 hPa2.4 kmSW (220°)29.6 km/h42.6 km/h15.75 mmRainLight Rain
1:51 PM24 °C24 °C100 %1005.1 hPa2.4 kmSW (220°)29.6 km/h42.6 km/h15.75 mmRainLight Rain
1:54 PM24.4 °C23.9 °C97 %1004.4 hPa8 kmSW (220°)33.3 km/h46.3 km/h15.75 mmRainLight Rain
1:54 PM24.4 °C23.9 °C97 %1004.4 hPa8 kmSW (220°)33.3 km/h46.3 km/h15.75 mmRainLight Rain
2:03 PM24 °C24 °C100 %1005.1 hPa3.2 kmSW (220°)25.9 km/h50.1 km/h0.51 mmRainHeavy Rain
2:03 PM24 °C24 °C100 %1005.1 hPa3.2 kmSW (220°)25.9 km/h50.1 km/h0.51 mmRainHeavy Rain
2:06 PM24 °C24 °C100 %1005.1 hPa1.9 kmSSW (210°)25.9 km/h50.1 km/h1.52 mmRainHeavy Rain
2:06 PM24 °C24 °C100 %1005.1 hPa1.9 kmSSW (210°)25.9 km/h50.1 km/h1.52 mmRainHeavy Rain
2:21 PM25 °C24 °C94 %1005.1 hPa4.8 kmSW (220°)38.9 km/h57.5 km/h5.59 mmRainLight Rain
2:21 PM25 °C24 °C94 %1005.1 hPa4.8 kmSW (220°)38.9 km/h57.5 km/h5.59 mmRainLight Rain
2:25 PM25 °C24 °C94 %1005.1 hPa4 kmSW (220°)38.9 km/h57.5 km/h5.59 mmRainHeavy Rain
2:25 PM25 °C24 °C94 %1005.1 hPa4 kmSW (220°)38.9 km/h57.5 km/h5.59 mmRainHeavy Rain
2:27 PM25 °C24 °C94 %1005.1 hPa4.8 kmSSW (210°)35.2 km/h57.5 km/h5.59 mmRainHeavy Rain
2:27 PM25 °C24 °C94 %1005.1 hPa4.8 kmSSW (210°)35.2 km/h57.5 km/h5.59 mmRainHeavy Rain
2:31 PM24 °C24 °C100 %1005.4 hPa4 kmSW (220°)38.9 km/h57.5 km/h6.35 mmRainLight Rain
2:31 PM24 °C24 °C100 %1005.4 hPa4 kmSW (220°)38.9 km/h57.5 km/h6.35 mmRainLight Rain
2:36 PM24 °C24 °C100 %1005.4 hPa1.3 kmSW (220°)29.6 km/h64.9 km/h6.6 mmRainHeavy Rain
2:36 PM24 °C24 °C100 %1005.4 hPa1.3 kmSW (220°)29.6 km/h64.9 km/h6.6 mmRainHeavy Rain
2:54 PM24.4 °C23.9 °C97 %1005.1 hPa1.3 kmSW (220°)37 km/h61.2 km/h17.27 mmRainHeavy Rain
2:54 PM24.4 °C23.9 °C97 %1005.1 hPa1.3 kmSW (220°)37 km/h61.2 km/h17.27 mmRainHeavy Rain
3:03 PM24 °C24 °C100 %1006.1 hPa3.2 kmSW (220°)27.8 km/h51.8 km/h2.54 mmRainRain
3:03 PM24 °C24 °C100 %1006.1 hPa3.2 kmSW (220°)27.8 km/h51.8 km/h2.54 mmRainRain
3:09 PM24 °C24 °C100 %1005.8 hPa2.9 kmSSW (210°)27.8 km/h51.8 km/h3.3 mmRainHeavy Rain
3:09 PM24 °C24 °C100 %1005.8 hPa2.9 kmSSW (210°)27.8 km/h51.8 km/h3.3 mmRainHeavy Rain
3:21 PM24 °C24 °C100 %1005.8 hPa3.2 kmSSW (210°)35.2 km/h50.1 km/h5.08 mmRainHeavy Rain
3:21 PM24 °C24 °C100 %1005.8 hPa3.2 kmSSW (210°)35.2 km/h50.1 km/h5.08 mmRainHeavy Rain
3:29 PM24 °C24 °C100 %1005.4 hPa4.8 kmSW (220°)25.9 km/h48.1 km/h6.1 mmRainRain
3:29 PM24 °C24 °C100 %1005.4 hPa4.8 kmSW (220°)25.9 km/h48.1 km/h6.1 mmRainRain
3:42 PM24 °C23 °C94 %1005.8 hPa2.9 kmSW (230°)40.7 km/h62.9 km/h6.86 mmRainHeavy Rain
3:42 PM24 °C23 °C94 %1005.8 hPa2.9 kmSW (230°)40.7 km/h62.9 km/h6.86 mmRainHeavy Rain
3:54 PM23.9 °C23.3 °C96 %1004.7 hPa4 kmSW (230°)35.2 km/h51.8 km/h8.38 mmRainHeavy Rain
3:54 PM23.9 °C23.3 °C96 %1004.7 hPa4 kmSW (230°)35.2 km/h51.8 km/h8.38 mmRainHeavy Rain
4:07 PM24 °C24 °C100 %1005.1 hPa6.4 kmSW (230°)27.8 km/h46.3 km/h1.27 mmRainRain
4:07 PM24 °C24 °C100 %1005.1 hPa6.4 kmSW (230°)27.8 km/h46.3 km/h1.27 mmRainRain
4:54 PM24.4 °C23.3 °C94 %1003.4 hPa9.7 kmWSW (250°)44.4 km/h66.6 km/h2.79 mmRainRain
4:54 PM24.4 °C23.3 °C94 %1003.4 hPa9.7 kmWSW (250°)44.4 km/h66.6 km/h2.79 mmRainRain
5:54 PM25 °C23.9 °C94 %1003.7 hPa16.1 kmWSW (250°)46.3 km/h64.9 km/h1.02 mmRainLight Rain
5:54 PM25 °C23.9 °C94 %1003.7 hPa16.1 kmWSW (250°)46.3 km/h64.9 km/h1.02 mmRainLight Rain
6:54 PM25.6 °C23.9 °C90 %1005.4 hPa16.1 kmSSW (210°)24.1 km/h40.7 km/h1.52 mmRainLight Rain
6:54 PM25.6 °C23.9 °C90 %1005.4 hPa16.1 kmSSW (210°)24.1 km/h40.7 km/h1.52 mmRainLight Rain
7:26 PM25 °C24 °C94 %1005.8 hPa16.1 kmSW (230°)27.8 km/h57.5 km/h0.25 mmRainLight Rain
7:26 PM25 °C24 °C94 %1005.8 hPa16.1 kmSW (230°)27.8 km/h57.5 km/h0.25 mmRainLight Rain
7:45 PM25 °C24 °C94 %1005.8 hPa16.1 kmSSW (210°)20.4 km/h50.1 km/h0.51 mmRainLight Rain
7:45 PM25 °C24 °C94 %1005.8 hPa16.1 kmSSW (210°)20.4 km/h50.1 km/h0.51 mmRainLight Rain
7:54 PM25 °C23.9 °C94 %1005.8 hPa16.1 kmSouth (180°)14.8 km/h35.2 km/h0.76 mmRainLight Rain
7:54 PM25 °C23.9 °C94 %1005.8 hPa16.1 kmSouth (180°)14.8 km/h35.2 km/h0.76 mmRainLight Rain
8:02 PM25 °C24 °C94 %1006.4 hPa16.1 kmSSW (200°)13 km/h33.3 km/h0 mmRainLight Rain
8:02 PM25 °C24 °C94 %1006.4 hPa16.1 kmSSW (200°)13 km/h33.3 km/h0 mmRainLight Rain
8:54 PM25.6 °C23.9 °C90 %1007.1 hPa16.1 kmSouth (170°)13 km/h33.3 km/h0.51 mmRainLight Rain
8:54 PM25.6 °C23.9 °C90 %1007.1 hPa16.1 kmSouth (170°)13 km/h33.3 km/h0.51 mmRainLight Rain
9:54 PM25.6 °C24.4 °C93 %1008.1 hPa11.3 kmSE (130°)14.8 km/h0.51 mmRainLight Rain
9:54 PM25.6 °C24.4 °C93 %1008.1 hPa11.3 kmSE (130°)14.8 km/h0.51 mmRainLight Rain
10:30 PM26 °C24 °C89 %1008.8 hPa16.1 kmSW (220°)14.8 km/h0.25 mmMostly Cloudy
10:30 PM26 °C24 °C89 %1008.8 hPa16.1 kmSW (220°)14.8 km/h0.25 mmMostly Cloudy
10:54 PM25.6 °C23.9 °C90 %1008.5 hPa16.1 kmVariable7.4 km/h0.25 mmOvercast
10:54 PM25.6 °C23.9 °C90 %1008.5 hPa16.1 kmVariable7.4 km/h0.25 mmOvercast
11:21 PM25 °C23 °C89 %1009.1 hPa16.1 kmSSW (210°)14.8 km/hScattered Clouds
11:21 PM25 °C23 °C89 %1009.1 hPa16.1 kmSSW (210°)14.8 km/hScattered Clouds
11:54 PM25 °C23.9 °C94 %1008.8 hPa16.1 kmSSW (200°)13 km/h0 mmPartly Cloudy
11:54 PM25 °C23.9 °C94 %1008.8 hPa16.1 kmSSW (200°)13 km/h0 mmPartly Cloudy
Hourly data recorded from PGUM, located 0 kilometers away from Asatdas, Guam







STORIES FROM OUR PARTNERS